[[{"header":{"parameterUnit":"m.s-1","parameterCategory":1,"la1":30.2991,"la2":30.254,"lo1":-89.0895,"lo2":-89.0444,"dy":0.0017,"dx":0.0017,"nx":28,"ny":28,"refTime":"2025-12-24T09:00:00:Z","depth":0,"parameterNumber":2,"parameterNumberName":"U-component_of_WINDS"},"data":[0,0,0,0,0,0,0,0,0,0,0,0,0,0,0,0,0,0,0,0,0,0,0,0,0,0,0,0,0,0,0,0,0,0,0,0,0,0,0,0,0,0,0,0,0,0,0,0,0,0,0,0,0,0,0,0,0,0,2.2147,2.2148,0,2.2239,2.224,2.2241,2.2242,2.224,2.2239,2.2238,2.2332,2.2335,2.2339,0,0,0,0,0,0,0,0,0,0,0,0,0,2.1971,2.1974,2.2147,2.2148,2.2149,2.2239,2.224,2.2242,2.2242,2.224,2.2239,2.2238,2.2331,2.2335,2.2339,0,0,0,0,0,0,0,0,0,0,0,0,0,2.2054,2.1975,2.2147,2.216,2.2162,2.2239,2.2241,2.2242,2.2242,2.224,2.2239,2.2237,2.2329,2.2335,2.234,2.2409,0,0,2.2356,2.2359,0,0,0,0,0,0,0,0,2.2049,2.206,2.2157,2.2159,2.2162,2.2227,2.2213,2.2298,2.2243,2.2212,2.2238,2.2236,2.2298,2.2306,2.2327,2.2413,2.2417,2.2357,2.236,2.2362,2.2364,0,0,0,0,0,0,0,2.2043,2.2056,2.2183,2.2158,2.2161,2.2162,2.2171,2.2229,2.2264,2.2214,2.2215,2.2226,2.2299,2.2322,2.233,2.2419,2.2357,2.2362,2.2365,2.2367,2.2567,2.2569,0,0,0,0,0,0,2.2035,2.2051,2.2181,2.2186,2.21,2.2166,2.2177,2.2208,2.2263,2.227,2.2227,2.2225,2.2314,2.2323,2.2333,2.2418,2.2362,2.2367,2.2371,2.2565,2.2568,2.257,0,0,0,0,0,0,2.2031,2.2046,2.2177,2.2119,2.2136,2.2171,2.2206,2.2211,2.2234,2.2273,2.2279,2.2244,2.2313,2.2325,2.239,2.2421,2.237,2.2375,2.2563,2.2566,2.2569,2.2588,0,0,0,0,0,0,2.2026,2.2045,2.2071,2.212,2.2139,2.2233,2.2208,2.2214,2.2243,2.2242,2.229,2.2297,2.2312,2.2382,2.2396,2.2428,2.2379,2.256,2.2564,2.2568,2.2585,2.2591,2.2597,0,0,0,0,0,2.202,2.2073,2.2073,2.2088,2.2172,2.2234,2.2245,2.2262,2.2245,2.2272,2.2298,2.2295,2.2416,2.2389,2.2404,2.2438,2.2558,2.2563,2.2567,2.2582,2.259,2.2597,0,0,0,0,0,0,2.2026,2.2079,2.208,2.215,2.2188,2.2234,2.2268,2.227,2.2313,2.231,2.2329,2.2341,2.2405,2.2428,2.2397,2.2508,2.2485,2.2493,2.2491,2.2499,2.2505,2.2497,2.2384,0,0,0,0,0,2.2036,2.2082,2.2126,2.2183,2.2202,2.2232,2.226,2.227,2.231,2.2326,2.2356,2.2394,2.2441,2.2471,2.2517,2.2589,2.2599,2.2619,2.2626,2.263,2.2637,2.2677,2.2686,2.2585,2.2585,2.2585,0,0,2.2056,2.2091,2.2118,2.2186,2.2216,2.2263,2.2246,2.2296,2.2331,2.2333,2.2396,2.242,2.2465,2.2534,2.2566,2.2555,2.2667,2.2636,2.264,2.2644,2.2683,2.2692,2.2701,2.2588,2.2588,2.2587,0,0,2.2117,2.2148,2.2199,2.2231,2.2278,2.2298,2.231,2.2357,2.2373,2.2437,2.244,2.2482,2.2562,2.2594,2.2621,2.2696,2.2695,2.271,2.2742,2.2781,2.2789,2.2796,2.2823,2.2832,2.2717,2.2717,2.2717,0,2.2136,2.2207,2.2226,2.2277,2.2306,2.2312,2.2364,2.2394,2.2453,2.2473,2.2461,2.2562,2.2592,2.2669,2.2687,2.2709,2.2724,2.2704,2.2786,2.2794,2.2801,2.2826,2.2836,2.2718,2.2718,2.2718,2.2718,0,2.2228,2.2278,2.2314,2.2372,2.2406,2.2457,2.2484,2.2516,2.2524,2.2545,2.2611,2.2648,2.2701,2.272,2.2728,2.2799,2.279,2.2782,2.2759,2.2811,2.2836,2.2846,2.272,2.272,2.2719,2.2719,0,0,2.2293,2.2362,2.2375,2.2402,2.2455,2.2493,2.2546,2.2598,2.2626,2.2667,2.2711,2.278,2.2773,2.2803,2.2815,2.2849,2.2907,2.2837,2.2838,2.2848,2.2987,2.2992,2.3003,2.2907,2.2909,2.2911,2.2983,0,2.2359,2.2452,2.2471,2.2552,2.2598,2.2605,2.2651,2.2689,2.2711,2.2753,2.2777,2.2826,2.2813,2.2831,2.2866,2.2892,2.2935,2.2888,2.2948,2.295,2.2935,2.3016,2.3021,2.3087,2.2992,2.2994,2.2995,0,2.2447,2.2492,2.2577,2.2625,2.2646,2.2686,2.2737,2.2777,2.2821,2.2834,2.2869,2.2878,2.2933,2.2908,2.2984,2.2952,2.2978,2.2995,2.2998,2.3004,2.2975,2.3022,2.3109,2.3118,2.3011,2.3009,2.3008,0,2.2486,2.2567,2.2629,2.2651,2.2709,2.2738,2.2763,2.2805,2.2836,2.288,2.29,2.295,2.2977,2.3016,2.3038,2.3018,2.3113,2.309,2.3125,2.3125,2.3143,2.3142,2.3234,2.3162,2.3162,2.3162,2.3162,0,2.2556,2.2608,2.2647,2.2685,2.2743,2.2766,2.2823,2.2848,2.2886,2.2929,2.2938,2.2978,2.3006,2.305,2.3068,2.3128,2.314,2.3153,2.3157,2.3151,2.315,2.3168,2.3163,2.3165,2.3164,2.3164,2.3163,0,2.2608,2.2636,2.2704,2.2754,2.2768,2.2809,2.2852,2.2889,2.2912,2.2966,2.298,2.3016,2.3069,2.3095,2.3161,2.3173,2.3241,2.3242,2.3226,2.3227,2.3261,2.3257,2.3368,2.3383,2.3302,2.3303,2.3303,0,2.2651,2.2691,2.2746,2.2776,2.2802,2.285,2.2882,2.2906,2.2939,2.2993,2.3023,2.3077,2.312,2.3204,2.3236,2.3287,2.3289,2.3324,2.3296,2.329,2.3289,2.3285,2.3289,2.3328,2.3329,2.333,2.333,0,2.2723,2.2735,2.2781,2.2833,2.2871,2.2912,2.2953,2.2977,2.3008,2.3044,2.3099,2.3133,2.32,2.3253,2.3306,2.3332,2.3337,2.3339,2.335,2.3344,2.3333,2.3339,2.3238,2.3336,2.3336,2.3335,2.3335,2.3335,2.2771,2.2807,2.2852,2.2903,2.2937,2.2975,2.3013,2.3042,2.3087,2.3144,2.3157,2.3214,2.3258,2.333,2.3358,2.3403,2.3395,2.3411,2.3415,2.3418,2.3419,2.3327,2.3413,2.3413,2.3413,2.3413,2.3413,0,2.2843,2.2873,2.292,2.2977,2.3018,2.302,2.3066,2.3099,2.315,2.3191,2.3234,2.3297,2.3349,2.3386,2.3439,2.3468,2.3471,2.3481,2.3478,2.3484,2.3424,2.3409,2.3477,2.3477,2.3477,2.3477,2.3477,2.3477,2.2885,2.2947,2.2965,2.3044,2.3074,2.313,2.3156,2.3192,2.3225,2.3295,2.3338,2.3362,2.3402,2.3458,2.3506,2.3515,2.3534,2.3543,2.3553,2.3495,2.3488,2.3482,2.3468,2.3548,2.3548,2.3609,2.361,2.361]},{"header":{"parameterUnit":"m.s-1","parameterCategory":1,"la1":30.2991,"la2":30.254,"lo1":-89.0895,"lo2":-89.0444,"dy":0.0017,"dx":0.0017,"nx":28,"ny":28,"refTime":"2025-12-24T09:00:00:Z","depth":0,"parameterNumber":3,"parameterNumberName":"V-component_of_WINDS"},"data":[0,0,0,0,0,0,0,0,0,0,0,0,0,0,0,0,0,0,0,0,0,0,0,0,0,0,0,0,0,0,0,0,0,0,0,0,0,0,0,0,0,0,0,0,0,0,0,0,0,0,0,0,0,0,0,0,0,0,1.2046,1.2047,0,1.2073,1.2074,1.2074,1.2089,1.2089,1.2089,1.2089,1.2115,1.2116,1.2117,0,0,0,0,0,0,0,0,0,0,0,0,0,1.2006,1.2007,1.2046,1.2047,1.2047,1.2073,1.2074,1.2074,1.2089,1.2089,1.2089,1.2089,1.2115,1.2116,1.2117,0,0,0,0,0,0,0,0,0,0,0,0,0,1.2027,1.2007,1.2046,1.2058,1.2059,1.2073,1.2074,1.2074,1.2089,1.2089,1.2089,1.2089,1.2115,1.2116,1.2117,1.2122,0,0,1.212,1.212,0,0,0,0,0,0,0,0,1.2026,1.2029,1.2056,1.2057,1.2058,1.2078,1.2069,1.209,1.2089,1.2077,1.2089,1.2089,1.2103,1.2105,1.211,1.2123,1.2124,1.212,1.2121,1.2121,1.2121,0,0,0,0,0,0,0,1.2025,1.2028,1.2057,1.2056,1.2058,1.2061,1.2064,1.2073,1.2089,1.2078,1.2079,1.2082,1.2104,1.2109,1.211,1.2125,1.212,1.2121,1.2122,1.2122,1.2143,1.2143,0,0,0,0,0,0,1.2021,1.2026,1.2056,1.2058,1.2042,1.2061,1.2065,1.2071,1.2089,1.2092,1.2082,1.2083,1.2107,1.2109,1.2111,1.2118,1.2121,1.2122,1.2123,1.2143,1.2143,1.2143,0,0,0,0,0,0,1.202,1.2024,1.2055,1.2042,1.2047,1.2062,1.2069,1.2072,1.2077,1.2092,1.2095,1.2085,1.2107,1.211,1.2119,1.2119,1.2123,1.2124,1.2143,1.2143,1.2143,1.2132,0,0,0,0,0,0,1.2019,1.2024,1.2026,1.2042,1.2047,1.2063,1.2069,1.2072,1.2079,1.208,1.2095,1.2098,1.2107,1.2118,1.212,1.2121,1.2124,1.2143,1.2143,1.2143,1.2132,1.2131,1.2131,0,0,0,0,0,1.2018,1.2022,1.2026,1.203,1.2051,1.2063,1.2066,1.2077,1.2079,1.2081,1.2091,1.2098,1.2119,1.2118,1.2121,1.2122,1.2143,1.2143,1.2143,1.2133,1.2131,1.2131,0,0,0,0,0,0,1.2005,1.2024,1.2029,1.2039,1.2049,1.2065,1.2069,1.2075,1.2085,1.2085,1.2098,1.2102,1.2109,1.2117,1.2116,1.2128,1.2132,1.2132,1.2123,1.2122,1.2121,1.2119,1.2125,0,0,0,0,0,1.2004,1.2012,1.2028,1.2035,1.204,1.2053,1.2059,1.2067,1.2078,1.2082,1.2092,1.2102,1.2111,1.2117,1.2126,1.2133,1.2136,1.2135,1.2134,1.2134,1.2134,1.2137,1.2137,1.2142,1.2142,1.2142,0,0,1.2001,1.2012,1.2017,1.2033,1.2042,1.205,1.2057,1.2066,1.2071,1.2083,1.2092,1.21,1.2112,1.212,1.2124,1.2127,1.2133,1.2133,1.2133,1.2133,1.2137,1.2137,1.2136,1.2142,1.2142,1.2142,0,0,1.1999,1.2008,1.2015,1.2024,1.2037,1.2045,1.2047,1.2062,1.2068,1.2077,1.2086,1.2093,1.2108,1.2116,1.2122,1.2122,1.2128,1.2124,1.212,1.2123,1.2123,1.2122,1.2122,1.2121,1.2124,1.2124,1.2124,0,1.1993,1.2006,1.2017,1.2025,1.2032,1.2043,1.2049,1.2056,1.2072,1.2076,1.2078,1.2097,1.2106,1.2115,1.2115,1.212,1.2121,1.2123,1.2122,1.2122,1.2122,1.2121,1.2121,1.2124,1.2124,1.2124,1.2124,0,1.1998,1.2007,1.201,1.2025,1.2032,1.2039,1.205,1.2056,1.2062,1.207,1.2079,1.209,1.2101,1.2104,1.2111,1.2114,1.2115,1.212,1.2124,1.212,1.212,1.212,1.2123,1.2123,1.2123,1.2123,0,0,1.199,1.201,1.2011,1.2017,1.2032,1.2039,1.2046,1.2057,1.2061,1.2071,1.2076,1.2088,1.2092,1.2099,1.2106,1.2109,1.2107,1.2113,1.2114,1.2111,1.2111,1.2108,1.2108,1.2111,1.2112,1.2112,1.211,0,1.199,1.2004,1.2014,1.2023,1.2031,1.204,1.2046,1.2055,1.2063,1.207,1.2078,1.2086,1.2091,1.2095,1.2098,1.2107,1.2108,1.2107,1.2116,1.2117,1.2113,1.2108,1.2104,1.2103,1.211,1.211,1.211,0,1.1993,1.2002,1.2012,1.2025,1.2029,1.2034,1.2044,1.2051,1.2061,1.2066,1.2073,1.2081,1.2088,1.2091,1.21,1.2099,1.2104,1.2108,1.2108,1.211,1.2113,1.2108,1.2102,1.2102,1.211,1.211,1.211,0,1.1985,1.2,1.2008,1.2013,1.2029,1.2032,1.2039,1.2049,1.2054,1.2063,1.2067,1.2076,1.2081,1.2088,1.2097,1.2099,1.2105,1.2109,1.2109,1.2109,1.211,1.211,1.2104,1.2113,1.2113,1.2113,1.2113,0,1.1985,1.199,1.2005,1.201,1.2016,1.2027,1.2033,1.204,1.2049,1.2055,1.2063,1.2068,1.2081,1.2087,1.2094,1.21,1.2102,1.2106,1.2108,1.2106,1.2105,1.2108,1.2109,1.2113,1.2113,1.2113,1.2113,0,1.1978,1.1988,1.1997,1.2011,1.2014,1.2018,1.2029,1.2034,1.2041,1.2049,1.2051,1.2063,1.207,1.208,1.2091,1.2096,1.2101,1.2104,1.2098,1.2099,1.2098,1.2098,1.2094,1.2094,1.2103,1.2103,1.2103,0,1.1977,1.1981,1.1995,1.2,1.2006,1.2013,1.2019,1.2029,1.2034,1.2046,1.2049,1.2057,1.2065,1.2076,1.2086,1.2094,1.2097,1.2095,1.2098,1.2095,1.2096,1.2096,1.2096,1.2094,1.2094,1.2094,1.2094,0,1.1974,1.1978,1.1986,1.1995,1.2001,1.2009,1.2017,1.202,1.2032,1.2037,1.2046,1.2051,1.2062,1.207,1.2079,1.2085,1.2091,1.2093,1.2093,1.209,1.2086,1.2088,1.2095,1.2093,1.2093,1.2093,1.2093,1.2093,1.197,1.1974,1.1984,1.1992,1.1999,1.2006,1.2011,1.2018,1.2025,1.2035,1.2041,1.2048,1.2057,1.207,1.2076,1.2081,1.2084,1.2084,1.2084,1.2084,1.2083,1.2085,1.2083,1.2083,1.2083,1.2083,1.2083,0,1.1967,1.1973,1.1981,1.1991,1.1997,1.2002,1.2011,1.2016,1.2022,1.203,1.2037,1.2046,1.2053,1.2063,1.2071,1.2073,1.2076,1.2075,1.2075,1.2076,1.2081,1.208,1.2073,1.2073,1.2073,1.2073,1.2073,1.2073,1.1966,1.1973,1.1978,1.1988,1.1995,1.2003,1.2007,1.2013,1.2019,1.2029,1.2035,1.2041,1.2049,1.2058,1.2064,1.2067,1.2069,1.2067,1.207,1.2075,1.2076,1.2077,1.2076,1.2068,1.2068,1.2065,1.2065,1.2065]}]]